Regional Weather Roundup
Issued by NWS Cleveland, OH

Home | Current Version | Previous Version | Text Only | Print | Product List | Glossary On
Versions: 1 2 3 4 5 6 7 8 9 10 11 12 13 14 15 16 17 18 19 20 21 22 23 24 25 26 27 28 29 30 31 32 33 34 35 36 37 38 39 40 41 42 43 44 45 46 47 48 49 50
000
ASUS41 KCLE 302312
RWRCLE
OHIO REGIONAL WEATHER ROUNDUP
NATIONAL WEATHER SERVICE WILMINGTON, OH
700 PM EDT THU MAR 30 2017

NOTE: "FAIR" INDICATES FEW OR NO CLOUDS BELOW 12,000 FEET WITH NO
SIGNIFICANT WEATHER AND/OR OBSTRUCTIONS TO VISIBILITY.

OHZ001>008-015>018-024>027-034-035-043-044-310000-
   NORTHWEST OHIO

CITY           SKY/WX    TMP DP  RH WIND       PRES   REMARKS
DEFIANCE       TSTM      42  41  96 N8        29.69R FOG
FINDLAY        LGT RAIN  50  45  83 E17G26    29.61F
TOLEDO EXPRESS LGT RAIN  41  41 100 NE17G23   29.66F
TOLEDO EXEC    CLOUDY    42  41  96 NE15      29.69F
LIMA           PTSUNNY   52  49  89 E17       29.59F
$$

OHZ009>014-019>023-028>033-038-089-310000-
   NORTHEAST OHIO

CITY           SKY/WX    TMP DP  RH WIND       PRES   REMARKS
CLE-HOPKINS    CLOUDY    52  39  61 E13       29.76F
CLE-LAKEFRONT  CLOUDY    50  40  68 E10       29.74F
CUY CO. ARPT   CLOUDY    50  41  71 SE15      29.76F
LORAIN-ELYRIA  FAIR      50  41  71 E10       29.72F
ASHTABULA      CLOUDY    44  38  79 E5        29.86R
AKRON-CANTON   CLOUDY    54  42  64 E12       29.74F
WOOSTER        FAIR      54  44  69 E12       29.71F
MANSFIELD      FAIR      57  48  72 E13       29.67F
YOUNGSTOWN     CLOUDY    48  39  71 E12       29.80S
$$

OHZ042-051>053-060>062-070>072-077>081-310000-
  SOUTHWEST OHIO

CITY           SKY/WX    TMP DP  RH WIND       PRES   REMARKS
CINC-COVINGTON CLOUDY    75  52  44 S15G24    29.60S
CINC-LUNKEN    FAIR      72  56  57 SW9       29.60R
HAMILTON       PTSUNNY   75  54  47 SW8       29.60R
DAYTON         LGT RAIN  71  51  49 SW17G31   29.60S
WRIGHT-PAT AFB PTSUNNY   74  50  42 S10       29.59S
DAYTON GENERAL CLOUDY    73  51  46 SW8       29.60R
WILMINGTON     CLOUDY    70  57  63 S6        29.62S
$$

OHZ036-037-039>041-045>050-054>059-063>069-073>076-082>088-310000-
  CENTRAL AND SOUTHEAST OHIO

CITY           SKY/WX    TMP DP  RH WIND       PRES   REMARKS
COLUMBUS       CLOUDY    75  55  49 S5        29.62F
OSU AIRPORT    FAIR      74  54  49 S8        29.61F
BOLTON FIELD   MOCLDY    72  55  56 S6        29.62F
RICKENBACK AFB MOCLDY    73  57  58 CALM      29.61F
NEWARK         LGT RAIN  62  57  83 NE9       29.64F
MARION         MOCLDY    63  51  65 E13       29.64F
LANCASTER      MOCLDY    71  59  65 NE5       29.62F
ZANESVILLE     MOCLDY    64  53  67 E8        29.66S
NEW PHILLY     MOCLDY    58  48  69 VRB6      29.72F
$$



USA.gov is the U.S. government's official web portal to all federal, state and local government web resources and services.